Torna al catalogo

ISS

UNITY

AttivoScienzaVLEO
NORAD 25575·PAYLOAD·🇺🇸 United States

Lanciato Dec 4, 1998 da Cape Canaveral Space Force Station

Loading…

Prossimi Passaggi (prossime 24 ore)

TLE

AggiornatoSource: Space-Track

Epoca: Sep 14, 2026, 08:04 UTC

1 25575U 98069F   26257.33674862  .00004921  00000-0  97059-4 0  9997
2 25575  51.6309 218.8707 0004933 140.1115 220.0237 15.49109585586344

Traccia ISS in tempo reale con AllMySat

Download on the App Store